Zurück zum Katalog

ARIANE 3 DEB *

AktivHEO
NORAD 17254·DEBRIS·🇫🇷 France

Gestartet Mar 28, 1986 von Guiana Space Centre

Loading…

Nächste Überflüge (nächste 24 Stunden)

TLE

AktuellSource: Space-Track

Epoche: Sep 13, 2026, 22:45 UTC

1 17254U 86026F   26256.94823448  .00000140  00000-0  87502-3 0  9994
2 17254   8.3885 166.4144 6652368 228.1533  52.2315  2.95862888347120

Verfolge ARIANE 3 DEB * in Echtzeit mit AllMySat

Download on the App Store